Location: Unspecified
(0.0000°N, 0.0000°E)
Time: 13:15:48
(UTC+01:00)

ATLAS 2AS CENTAUR R/B - Visible Passes

Search period start: 23 March 2017 00:00
Search period end: 02 April 2017 01:00
Orbit: 909 x 1303 km, 63.7° (Epoch: 19 March)

Date Brightness Start Highest point End Pass type
(mag) Time Alt. Az. Time Alt. Az. Time Alt. Az.
23 Mar 5.1 20:15:51 10° WNW 20:20:47 20° WSW 20:25:29 10° SSW visible
24 Mar 4.7 06:00:35 10° S 06:06:18 29° ESE 06:12:27 10° NE visible
24 Mar 4.3 19:29:34 10° NW 19:36:08 39° WSW 19:42:13 10° S visible
25 Mar 5.3 05:18:04 10° SE 05:21:38 15° ESE 05:25:20 10° E visible
26 Mar 3.0 07:20:36 10° SSW 07:27:22 79° ESE 07:34:50 10° NNE visible
26 Mar 5.5 20:54:14 10° W 20:57:13 13° WSW 21:00:07 10° SW visible
27 Mar 3.9 06:36:23 10° S 06:42:42 43° ESE 06:49:34 10° NE visible
28 Mar 4.8 05:52:58 10° SSE 05:58:03 22° ESE 06:03:26 10° ENE visible
28 Mar 3.3 07:42:16 10° SW 07:48:36 40° WNW 07:55:31 10° N visible
29 Mar 5.4 05:12:13 10° ESE 05:13:21 10° ESE 05:14:30 10° ESE visible
29 Mar 2.7 06:57:02 10° SSW 07:03:49 74° WNW 07:11:17 10° NNE visible
30 Mar 3.2 06:13:13 14° S 06:19:06 62° ESE 06:26:26 10° NNE visible
31 Mar 4.1 05:31:40 25° SSE 05:34:26 33° ESE 05:40:52 10° NE visible
31 Mar 3.7 07:19:23 10° WSW 07:25:07 28° WNW 07:31:19 10° N visible
01 Apr 4.9 04:49:54 17° ESE 04:49:54 17° ESE 04:54:08 10° ENE visible
01 Apr 2.9 06:37:27 33° WSW 06:40:17 51° WNW 06:47:32 10° N visible
